Tracking 19854 objects as of 24-Sep-2019
HD Live streaming from Space Station
objects crossing your sky now

SMS 2 AKM

Track SMS 2 AKM now!


NORAD ID: 20835
Int'l Code: 1975-011F
Perigee: 35,873.2 km
Apogee: 36,672.2 km
Inclination: 9.9 °
Period: 1,460.6 minutes
Semi major axis: 42643 km
RCS: 0.7943 m2 (medium)
Launch date: February 6, 1975
Source: United States (US)
Launch site: AIR FORCE EASTERN TEST RANGE (AFETR)

Note: This is a ROCKET BODY
aabbcc
Your satellite tracking list
Your tracking list is empty




NASA's NSSDC Master Catalog

Two Line Element Set (TLE):
1 20835U 75011F   19266.80464885 -.00000057 +00000-0 +00000-0 0  9992
2 20835 009.8801 304.8958 0093686 065.5543 315.0845 00.98587309022349
Source of the keplerian elements: AFSPC